Regional Weather Roundup
Issued by NWS

Home | Current Version | Previous Version | Text Only | Print | Product List | Glossary Off
Versions: 1 2 3 4 5 6 7 8 9 10 11 12 13 14 15 16 17 18 19 20 21 22 23 24 25 26 27 28 29 30 31 32 33 34 35 36 37 38 39 40 41 42 43 44 45 46 47 48 49 50

000
ASUS43 KLMK 040910
RWRKY
KENTUCKY REGIONAL WEATHER ROUNDUP
NATIONAL WEATHER SERVICE LOUISVILLE KY
400 AM EST WED MAR 04 2015

NOTE "FAIR" INDICATES FEW OR NO CLOUDS BELOW 12,000 FEET
WITH NO SIGNIFICANT WEATHER AND/OR OBSTRUCTIONS TO VISIBILITY.

KYZ001>023-026-027-061>063-070>075-041000-
WESTERN AND SOUTH CENTRAL KENTUCKY

CITY           SKY/WX    TMP DP  RH WIND       PRES   REMARKS
PADUCAH        CLOUDY    44  42  93 NE5       29.90F FOG
HENDERSON      CLOUDY    39  37  93 CALM      29.91R
OWENSBORO      HVY RAIN  42  42 100 W5        29.93R FOG
HOPKINSVILLE   LGT RAIN  47  46  96 N10       29.88R
BOWLING GREEN  LGT RAIN  50  48  93 N6        29.89R FOG
GLASGOW        RAIN      49  49 100 N3        29.88S
$$

KYZ024-025-028>034-038-045-046-053-041000-
NORTH CENTRAL KENTUCKY

CITY           SKY/WX    TMP DP  RH WIND       PRES   REMARKS
LOUISVILLE/SDF HVY RAIN  43  41  93 NW3       29.90S FOG
LOUISVILLE/LOU RAIN      42  41  96 NW3       29.89F FOG
FORT KNOX      RAIN      43  41  93 CALM      29.89R FOG
$$

KYZ035>037-039>044-047>052-055>060-089>105-041000-
NORTHEAST KENTUCKY

CITY           SKY/WX    TMP DP  RH WIND       PRES   REMARKS
LEXINGTON      RAIN      42  41  96 NW7       29.90R FOG
COVINGTON      RAIN      37  35  92 NW7       29.89F FOG     WCI  32
FRANKFORT      RAIN      41  40  96 CALM      29.89R FOG
$$

KYZ054-064>069-076>088-106>120-041000-
SOUTHEAST KENTUCKY

CITY           SKY/WX    TMP DP  RH WIND       PRES   REMARKS
JACKSON        LGT RAIN  50  49  96 CALM      29.86S FOG
LONDON         CLOUDY    54  49  83 CALM      29.86S
SOMERSET       CLOUDY    50  50 100 CALM      29.87F
MIDDLESBORO    RAIN      56  55  99 S5        29.90S
MONTICELLO     CLOUDY    55  55 100 CALM      29.87F
$$



USA.gov is the U.S. government's official web portal to all federal, state and local government web resources and services.